TimePST,TemperatureF,Dew PointF,Humidity,Sea Level PressureIn,VisibilityMPH,Wind Direction,Wind SpeedMPH,Gust SpeedMPH,PrecipitationIn,Events,Conditions,WindDirDegrees,DateUTC
12:56 AM,55.0,52.0,89,30.06,7.0,ENE,3.5,-,N/A,,Overcast,60,2013-11-10 08:56:00
1:56 AM,54.0,52.0,93,30.05,6.0,North,-9999.0,-,N/A,,Overcast,0,2013-11-10 09:56:00
2:56 AM,53.1,51.1,93,30.06,7.0,North,-9999.0,-,N/A,,Overcast,0,2013-11-10 10:56:00
3:39 AM,53.6,50.0,88,30.07,8.0,Variable,5.8,161.1,N/A,,Squalls,0,2013-11-10 11:39:00
3:56 AM,52.0,48.9,89,30.07,8.0,South,17.3,58.7,N/A,,Overcast,190,2013-11-10 11:56:00
4:25 AM,51.8,48.2,88,30.07,6.0,South,4.6,-,N/A,,Overcast,170,2013-11-10 12:25:00
4:49 AM,50.0,48.2,94,30.07,2.5,Calm,Calm,-,N/A,,Overcast,0,2013-11-10 12:49:00
4:56 AM,50.0,48.0,93,30.08,1.5,Calm,Calm,-,N/A,,Overcast,0,2013-11-10 12:56:00
5:10 AM,50.0,48.2,94,30.08,0.8,Calm,Calm,-,N/A,,Mist,0,2013-11-10 13:10:00
5:56 AM,48.9,48.0,97,30.08,0.2,SSE,3.5,-,N/A,Fog,Fog,160,2013-11-10 13:56:00
6:12 AM,48.2,48.2,100,30.09,0.5,Calm,Calm,-,N/A,Fog,Fog,0,2013-11-10 14:12:00
6:33 AM,50.0,48.2,94,30.09,0.2,Calm,Calm,-,N/A,Fog,Fog,0,2013-11-10 14:33:00
6:56 AM,48.9,48.9,100,30.10,0.2,Calm,Calm,-,N/A,Fog,Fog,0,2013-11-10 14:56:00
7:30 AM,48.2,48.2,100,30.11,0.2,Calm,Calm,-,N/A,Fog,Fog,0,2013-11-10 15:30:00
7:56 AM,48.9,46.9,93,30.13,0.5,West,3.5,-,N/A,Fog,Fog,270,2013-11-10 15:56:00
8:06 AM,48.2,48.2,100,30.13,2.0,Calm,Calm,-,N/A,,Overcast,0,2013-11-10 16:06:00
8:56 AM,52.0,48.0,86,30.12,2.0,West,4.6,-,N/A,,Overcast,280,2013-11-10 16:56:00
9:03 AM,51.8,48.2,88,30.13,3.0,NNW,4.6,-,N/A,,Overcast,340,2013-11-10 17:03:00
9:30 AM,53.6,48.2,82,30.12,9.0,Calm,Calm,-,N/A,,Scattered Clouds,0,2013-11-10 17:30:00
9:56 AM,57.0,48.0,72,30.12,10.0,Calm,Calm,-,N/A,,Clear,0,2013-11-10 17:56:00
10:56 AM,62.1,48.0,60,30.12,10.0,Calm,Calm,-,N/A,,Clear,0,2013-11-10 18:56:00
11:56 AM,64.9,48.0,54,30.10,10.0,SSW,3.5,-,N/A,,Clear,200,2013-11-10 19:56:00
12:56 PM,66.9,48.9,52,30.08,10.0,Variable,3.5,-,N/A,,Clear,0,2013-11-10 20:56:00
1:56 PM,69.1,46.0,44,30.06,10.0,Calm,Calm,-,N/A,,Clear,0,2013-11-10 21:56:00
2:56 PM,66.0,48.0,52,30.07,10.0,Calm,Calm,-,N/A,,Clear,0,2013-11-10 22:56:00
3:56 PM,63.0,50.0,63,30.09,10.0,WNW,11.5,-,N/A,,Clear,300,2013-11-10 23:56:00
4:56 PM,57.9,50.0,75,30.10,10.0,NW,11.5,-,N/A,,Clear,310,2013-11-11 00:56:00
5:56 PM,55.0,50.0,83,30.11,10.0,NW,8.1,-,N/A,,Clear,310,2013-11-11 01:56:00
6:56 PM,55.0,50.0,83,30.12,10.0,WNW,3.5,-,N/A,,Clear,300,2013-11-11 02:56:00
7:56 PM,54.0,48.9,83,30.11,10.0,Calm,Calm,-,N/A,,Clear,0,2013-11-11 03:56:00
8:56 PM,51.1,46.9,86,30.12,10.0,Calm,Calm,-,N/A,,Clear,0,2013-11-11 04:56:00
9:56 PM,50.0,45.0,83,30.11,10.0,Calm,Calm,-,N/A,,Clear,0,2013-11-11 05:56:00
10:56 PM,46.0,43.0,89,30.11,9.0,Variable,4.6,24.2,N/A,,Clear,0,2013-11-11 06:56:00
11:56 PM,46.0,42.1,86,30.10,9.0,Calm,Calm,-,N/A,,Clear,0,2013-11-11 07:56:00